Weather History for KPNE - October, 2012

Change the Weather History Date:

Thursday, October 11, 2012

  Actual Average Record
Temperature  
Mean Temperature 52 °F -  
Max Temperature 61 °F 65 °F 79 °F (2010)
Min Temperature 45 °F 45 °F 39 °F (1996)
Degree Days  
Heating Degree Days 13    
Growing Degree Days 2 (Base 50)    
Moisture  
Dew Point 34 °F    
Average Humidity 53    
Maximum Humidity 71    
Minimum Humidity 35    
Precipitation  
Precipitation 0.00 in - - ()
Sea Level Pressure  
Sea Level Pressure 30.19 in    
Wind  
Wind Speed 8 mph (West)    
Max Wind Speed 16 mph    
Max Gust Speed 23 mph    
Visibility 10 miles    
Events      
Averages and records for this station are not official NWS values.
T = Trace of Precipitation, MM = Missing Value Source: NWS Daily Summary

Daily Weather History Graph

Daily Weather History Graph

Search for Another Location

Airport or City:

Trip Planner

Search our weather history database for the weather conditions in past years. The results will help you decide how hot, cold, wet, or windy it might be!

Date:

Astronomy

Oct. 11, 2012 Rise Set
Actual Time 7:06 AM EDT 6:25 PM EDT
Civil Twilight 6:39 AM EDT 6:52 PM EDT
Nautical Twilight 6:08 AM EDT 7:24 PM EDT
Astronomical Twilight 5:36 AM EDT 7:55 PM EDT
Moon 2:42 AM EDT (10/11) 4:00 PM EDT (10/11)
Length of Visible Light 12h 13m
Length of Day
11h 18m
Waning Crescent, 18% of the Moon is Illuminated
Oct 11
Waning Crescent
Oct 15
New
Oct 21
First Quarter
Oct 29
Full
Nov 6
Last Quarter

Hourly Weather History & Observations

Time (EDT) Temp. Windchill Dew Point Humidity Pressure Visibility Wind Dir Wind Speed Gust Speed Precip Events Conditions
12:54 AM 51.1 °F - 37.9 °F 61% 30.06 in 10.0 mi WNW 6.9 mph - N/A   Clear
1:54 AM 48.9 °F - 37.9 °F 66% 30.06 in 10.0 mi WNW 5.8 mph - N/A   Clear
2:54 AM 50.0 °F - 37.0 °F 61% 30.09 in 10.0 mi WNW 16.1 mph 21.9 mph N/A   Clear
3:54 AM 48.9 °F - 36.0 °F 61% 30.12 in 10.0 mi WNW 9.2 mph - N/A   Clear
4:54 AM 48.0 °F - 36.0 °F 63% 30.14 in 10.0 mi WNW 6.9 mph - N/A   Clear
5:54 AM 46.0 °F 41.4 °F 35.1 °F 66% 30.17 in 10.0 mi WNW 9.2 mph - N/A   Clear
6:54 AM 45.0 °F 41.2 °F 33.1 °F 63% 30.20 in 10.0 mi WNW 6.9 mph - N/A   Clear
7:54 AM 46.9 °F - 32.0 °F 56% 30.23 in 10.0 mi WNW 5.8 mph - N/A   Clear
8:54 AM 48.9 °F - 30.9 °F 50% 30.25 in 10.0 mi NW 11.5 mph 19.6 mph N/A   Clear
9:54 AM 51.1 °F - 30.9 °F 46% 30.25 in 10.0 mi NW 11.5 mph 23.0 mph N/A   Clear
10:54 AM 52.0 °F - 32.0 °F 47% 30.26 in 10.0 mi WNW 13.8 mph - N/A   Clear
11:54 AM 55.0 °F - 33.1 °F 43% 30.25 in 10.0 mi WNW 11.5 mph - N/A   Clear
12:54 PM 55.9 °F - 32.0 °F 40% 30.23 in 10.0 mi Variable 3.5 mph - N/A   Clear
1:54 PM 57.9 °F - 32.0 °F 37% 30.21 in 10.0 mi North 5.8 mph - N/A   Clear
2:54 PM 57.9 °F - 32.0 °F 37% 30.21 in 10.0 mi SW 6.9 mph - N/A   Clear
3:54 PM 59.0 °F - 30.9 °F 35% 30.20 in 10.0 mi WSW 4.6 mph - N/A   Clear
4:54 PM 59.0 °F - 32.0 °F 36% 30.18 in 10.0 mi WSW 8.1 mph - N/A   Clear
5:54 PM 57.2 °F - 33.8 °F 41% 30.18 in 10.0 mi WSW 6.9 mph - N/A   Clear
6:54 PM 52.0 °F - 35.1 °F 53% 30.19 in 10.0 mi West 5.8 mph - N/A   Clear
7:54 PM 52.0 °F - 34.0 °F 50% 30.19 in 10.0 mi WSW 4.6 mph - N/A   Clear
8:54 PM 51.1 °F - 36.0 °F 56% 30.21 in 10.0 mi WSW 4.6 mph - N/A   Clear
9:54 PM 48.9 °F - 37.0 °F 64% 30.21 in 10.0 mi West 5.8 mph - N/A   Clear
10:54 PM 50.0 °F - 36.0 °F 59% 30.19 in 10.0 mi SW 6.9 mph - N/A   Clear
11:54 PM 46.9 °F - 37.9 °F 71% 30.19 in 10.0 mi Calm Calm - N/A   Clear